Flag for India Weather past 2 weeks in Karaikudi, Tamil Nadu, India

Now
84 °F

Passing clouds.


Feels Like: 87 °F
Forecast: 79 / 98 °F
Wind: 9 mph from West

Location: Tiruchchirapalli

Current Time: Jul 5, 2015 at 3:01:11 AM

Latest Report: Jul 5, 2015 at 1:40 AM


Visibility: 3 mi

Pressure: 29.77 "Hg

Humidity: 58%

Dew point: 68 °F

Location of KaraikudiLocation

Historic Weather in Karaikudi — Graph

°F

Karaikudi temperature yesterday

Maximum temperature yesterday: 102 °F (at 2:40 PM)
Minimum temperature yesterday: 82 °F (at 5:10 AM)
Average temperature yesterday: 91 °F

Past Weeks' High & Low Weather Summary

 TemperatureHumidityPressure
High104 °F (Jul 2, 3:40 PM)84% (Jun 23, 6:40 AM)29.86 "Hg (Jun 23, 6:40 AM)
Low79 °F (Jun 24, 5:40 AM)31% (Jul 1, 2:40 PM)29.59 "Hg (Jun 20, 3:10 PM)
Average89 °F54%29.75 "Hg
* Reported Jun 20 1:40 AM — Jul 5 1:40 AM, Karaikudi, Weather by CustomWeather, © 2015

Note: Actual official high and low records may vary slightly from our data, if they occured in-between our weather recording intervals... More about our weather records

Advertising

Karaikudi weather history for previous 24 hours

 ConditionsComfort  
Time TempWeatherWind HumidityBarometerVisibility
1:40 AM
Sun, Jul 5
84 °FPassing clouds.9 mph58%29.77 "Hg3 mi
1:10 AM86 °FPassing clouds.9 mph55%29.77 "Hg3 mi
12:40 AM86 °FPassing clouds.9 mph52%29.80 "Hg3 mi
12:10 AM86 °FPassing clouds.9 mph52%29.80 "Hg4 mi
11:40 PM
Sat, Jul 4
86 °FPassing clouds.9 mph52%29.80 "Hg4 mi
10:40 PM88 °FPassing clouds.9 mph55%29.80 "Hg4 mi
10:10 PM88 °FPassing clouds.12 mph52%29.80 "Hg4 mi
9:10 PM91 °FPassing clouds.9 mph41%29.77 "Hg4 mi
8:40 PM91 °FPassing clouds.9 mph41%29.77 "Hg4 mi
8:10 PM91 °FPassing clouds.9 mph46%29.77 "Hg4 mi
7:40 PM91 °FPassing clouds.13 mph46%29.74 "Hg4 mi
7:10 PM93 °FScattered clouds.13 mph44%29.74 "Hg4 mi
6:40 PM93 °FScattered clouds.13 mph44%29.71 "Hg4 mi
6:10 PM95 °FScattered clouds.12 mph41%29.71 "Hg5 mi
5:40 PM97 °FScattered clouds.12 mph42%29.71 "HgN/A
5:10 PM99 °FPassing clouds.8 mph39%29.71 "HgN/A
4:40 PM100 °FPassing clouds.9 mph37%29.71 "HgN/A
4:10 PM102 °FPassing clouds.10 mph35%29.71 "HgN/A
3:10 PM102 °FPassing clouds.9 mph35%29.71 "HgN/A
2:40 PM102 °FPassing clouds.13 mph35%29.74 "HgN/A
2:10 PM100 °FPassing clouds.14 mph35%29.74 "HgN/A
1:40 PM100 °FPassing clouds.12 mph35%29.74 "Hg5 mi
1:10 PM99 °FPassing clouds.12 mph37%29.77 "Hg5 mi
12:40 PM99 °FPassing clouds.14 mph37%29.77 "Hg5 mi
12:10 PM97 °FPassing clouds.12 mph42%29.80 "Hg5 mi
11:40 AM97 °FPassing clouds.12 mph42%29.80 "Hg5 mi
11:10 AM95 °FPassing clouds.12 mph47%29.83 "Hg5 mi
10:40 AM93 °FPassing clouds.12 mph49%29.83 "Hg5 mi
10:10 AM93 °FPassing clouds.10 mph49%29.83 "Hg5 mi
9:40 AM91 °FPassing clouds.12 mph52%29.83 "Hg4 mi
9:10 AM91 °FPassing clouds.10 mph52%29.83 "Hg4 mi
8:40 AM90 °FPassing clouds.9 mph55%29.83 "Hg4 mi
8:10 AM88 °FPassing clouds.14 mph55%29.83 "Hg4 mi
7:40 AM86 °FPassing clouds.12 mph59%29.83 "Hg4 mi
7:10 AM86 °FPassing clouds.9 mph55%29.80 "Hg4 mi
6:40 AM84 °FPassing clouds.10 mph62%29.80 "Hg4 mi
6:10 AM82 °FPassing clouds.12 mph66%29.80 "Hg4 mi
5:40 AM82 °FPassing clouds.9 mph66%29.80 "Hg4 mi
5:10 AM82 °FPassing clouds.13 mph62%29.80 "Hg4 mi
4:40 AM84 °FPassing clouds.13 mph58%29.77 "Hg4 mi
4:10 AM84 °FPassing clouds.12 mph58%29.77 "Hg4 mi
3:40 AM84 °FPassing clouds.9 mph58%29.80 "Hg4 mi
3:10 AM84 °FPassing clouds.12 mph58%29.80 "Hg4 mi
Weather by CustomWeather, © 2015

See weather overviewHow to use our weather pages